This is the latest recevied weather packets stored in our database for station/object KD7AWQ. If no packets are shown the sender has not sent any weather packets the latest 10 day(s).
| Time | Temp. | Humidity | Pressure | Rain* | Wind** | Luminosity | Snow |
|---|---|---|---|---|---|---|---|
| 1778003845 | 16.11° C | 66% | 1182 hPa | 0 mm | - | 229 W/m² | - |
| 1778003541 | 15.56° C | 74% | 1182 hPa | 0 mm | - | 283 W/m² | - |
| 1778003238 | 15.56° C | 62% | 1181.9 hPa | 0 mm | - | 95 W/m² | - |
| 1778002935 | 16.11° C | 61% | 1181.9 hPa | 0 mm | - | 224 W/m² | - |
| 1778002631 | 15.56° C | 66% | 1181.8 hPa | 0 mm | - | 509 W/m² | - |
| 1778002328 | 16.11° C | 62% | 1182 hPa | 0 mm | - | 71 W/m² | - |
| 1778002025 | 16.11° C | 61% | 1181.6 hPa | 0 mm | - | 229 W/m² | - |
| 1778001722 | 16.11° C | 61% | 1181.5 hPa | 0 mm | - | 477 W/m² | - |
| 1778001422 | 16.67° C | 61% | 1181.5 hPa | 0 mm | - | 480 W/m² | - |
| 1778001119 | 16.11° C | 63% | 1181.9 hPa | 0 mm | - | 485 W/m² | - |
| 1778000816 | 15° C | 66% | 1181.5 hPa | 0 mm | - | 1213 W/m² | - |
| 1778000512 | 15° C | 67% | 1181.8 hPa | 0 mm | - | 1235 W/m² | - |
| 1778000212 | 15° C | 68% | 1181.5 hPa | 0 mm | - | 187 W/m² | - |
| 1777999909 | 15° C | 68% | 1181.9 hPa | 0 mm | - | 239 W/m² | - |
| 1777999604 | 14.44° C | 71% | 1181.6 hPa | 0 mm | - | 170 W/m² | - |
| 1777999302 | 14.44° C | 72% | 1181.9 hPa | 0 mm | - | 288 W/m² | - |
| 1777999000 | 14.44° C | 71% | 1182 hPa | 0 mm | - | 306 W/m² | - |
| 1777998698 | 14.44° C | 76% | 1181.9 hPa | 0 mm | - | 288 W/m² | - |
| 1777998395 | 14.44° C | 74% | 1181.8 hPa | 0 mm | - | 406 W/m² | - |
| 1777998092 | 15° C | 72% | 1182 hPa | 0 mm | - | 149 W/m² | - |
| 1777997789 | 15° C | 71% | 1181.5 hPa | 0 mm | - | 187 W/m² | - |
| 1777997486 | 14.44° C | 72% | 1181.8 hPa | 0 mm | - | 744 W/m² | - |
| 1777997184 | 13.89° C | 73% | 1181.9 hPa | 0 mm | - | 315 W/m² | - |
| 1777996882 | 13.89° C | 73% | 1181.9 hPa | 0 mm | - | 367 W/m² | - |
| 1777996577 | 14.44° C | 73% | 1181.8 hPa | 0 mm | - | 383 W/m² | - |
* Rain latest hour (hover to see other rain measurements)
** Current wind speed in m/s (hover to see current wind gust speed)